Orbital Elements at Epoch 2459000.5 (2020-May-31.0) TDB
Reference: JPL 31 (heliocentric ecliptic J2000)
Element | Value | Uncertainty (1-sigma) | Units |
e | .0164460325340524 | 3.8325e-08 | |
a | 2.735284321871806 | 1.6683e-08 | au |
q | 2.690299746924419 | 1.0492e-07 | au |
i | 11.2638009284834 | 4.8851e-06 | deg |
node | 345.7685040516228 | 1.6937e-05 | deg |
peri | 128.414399975466 | 0.00013923 | deg |
M | 191.9467651532615 | 0.00013952 | deg |
tp | 2459771.841178389535 (2022-Jul-11.34117839) | 0.00064292 | TDB |
period | 1652.350366676812 4.52 | 1.5117e-05 4.139e-08 | d yr |
n | .2178714679768722 | 1.9932e-09 | deg/d |
Q | 2.780268896819193 | 1.6957e-08 | au |
|
| | Orbit Determination Parameters
Additional Information
|